Change the Weather History Date:

Tuesday, July 30, 2013

  Actual Average Record
Temperature  
Mean Temperature 70 °F 73 °F  
Max Temperature 79 °F 83 °F 100 °F (1999)
Min Temperature 60 °F 63 °F 48 °F (1918)
Degree Days  
Heating Degree Days 0 0  
Month to date heating degree days 12 0  
Since 1 June heating degree days 56  
Since 1 July heating degree days 12 0  
Cooling Degree Days 5 8  
Month to date cooling degree days 303 265  
Year to date cooling degree days 517 479  
Since 1 June cooling degree days 457  
Growing Degree Days 20 (Base 50)    
Moisture  
Dew Point 59 °F    
Average Humidity 72    
Maximum Humidity 90    
Minimum Humidity 54    
Precipitation  
Precipitation 0.00 in 0.14 in 1.07 in (1979)
Month to date precipitation 1.36 4.12  
Year to date precipitation 26.11 19.53  
Snow  
Snow 0.00 in 0.00 in 0.00 in (2002)
Month to date snowfall T 0.0  
Since 1 June snowfall T  
Since 1 July snowfall T 0.0  
Snow Depth 0.00 in    
Sea Level Pressure  
Sea Level Pressure 30.08 in    
Wind  
Wind Speed 6 mph (SSE)    
Max Wind Speed 13 mph    
Max Gust Speed 17 mph    
Visibility 10 miles    
Events      
T = Trace of Precipitation, MM = Missing Value Source: NWS Daily Summary

Daily Weather History Graph

Daily Weather History Graph

Search for Another Location

Airport or City:

Trip Planner

Search our weather history database for the weather conditions in past years. The results will help you decide how hot, cold, wet, or windy it might be!

Date:

Astronomy

Jul. 30, 2013 Rise Set
Actual Time 5:51 AM CDT 8:30 PM CDT
Civil Twilight 5:18 AM CDT 9:03 PM CDT
Nautical Twilight 4:36 AM CDT 9:44 PM CDT
Astronomical Twilight 3:49 AM CDT 10:32 PM CDT
Moon 12:11 AM CDT (7/30) 2:50 PM CDT (7/30)
Length of Visible Light 15h 44m
Length of Day
14h 38m
Last Quarter, 41% of the Moon is Illuminated
Jul 30
Last Quarter
Aug 6
New
Aug 14
First Quarter
Aug 20
Full
Aug 28
Last Quarter

Hourly Weather History & Observations

Time (CDT) Temp. Dew Point Humidity Pressure Visibility Wind Dir Wind Speed Gust Speed Precip Events Conditions
12:53 AM 61.0 °F 57.0 °F 87% 30.11 in 10.0 mi SE 4.6 mph - N/A   Clear
1:53 AM 60.1 °F 55.9 °F 86% 30.10 in 10.0 mi SE 5.8 mph - N/A   Clear
2:53 AM 60.1 °F 57.0 °F 90% 30.10 in 10.0 mi ESE 5.8 mph - N/A   Mostly Cloudy
3:53 AM 60.1 °F 55.9 °F 86% 30.09 in 10.0 mi ESE 6.9 mph - N/A   Overcast
4:53 AM 61.0 °F 57.0 °F 87% 30.10 in 10.0 mi ESE 4.6 mph - N/A   Overcast
5:53 AM 61.0 °F 55.9 °F 83% 30.11 in 10.0 mi ESE 5.8 mph - N/A   Overcast
6:53 AM 62.1 °F 55.9 °F 80% 30.12 in 10.0 mi Calm Calm - N/A   Overcast
7:53 AM 63.0 °F 57.0 °F 81% 30.12 in 10.0 mi SE 5.8 mph - N/A   Overcast
8:53 AM 66.0 °F 57.9 °F 75% 30.12 in 10.0 mi ESE 5.8 mph - N/A   Overcast
9:53 AM 68.0 °F 55.9 °F 65% 30.12 in 10.0 mi SSE 5.8 mph - N/A   Overcast
10:53 AM 70.0 °F 57.0 °F 63% 30.11 in 10.0 mi SSE 8.1 mph - N/A   Overcast
11:53 AM 72.0 °F 59.0 °F 64% 30.10 in 10.0 mi ESE 4.6 mph - N/A   Overcast
12:53 PM 75.0 °F 59.0 °F 57% 30.09 in 10.0 mi SSW 5.8 mph - N/A   Overcast
1:53 PM 75.9 °F 60.1 °F 58% 30.08 in 10.0 mi Calm Calm - N/A   Mostly Cloudy
2:53 PM 77.0 °F 60.1 °F 56% 30.06 in 10.0 mi SSE 6.9 mph - N/A   Overcast
3:53 PM 79.0 °F 61.0 °F 54% 30.05 in 10.0 mi SSW 11.5 mph - N/A   Mostly Cloudy
4:53 PM 78.1 °F 62.1 °F 58% 30.05 in 10.0 mi Variable 5.8 mph - N/A   Overcast
5:53 PM 75.9 °F 61.0 °F 60% 30.05 in 10.0 mi SW 9.2 mph - N/A   Overcast
6:53 PM 75.0 °F 62.1 °F 64% 30.04 in 10.0 mi SE 6.9 mph - N/A   Overcast
7:53 PM 73.9 °F 62.1 °F 66% 30.04 in 10.0 mi South 8.1 mph - N/A   Overcast
8:53 PM 73.0 °F 62.1 °F 68% 30.06 in 10.0 mi SSW 5.8 mph - N/A   Overcast
9:53 PM 72.0 °F 62.1 °F 71% 30.06 in 10.0 mi SSW 6.9 mph - N/A   Overcast
10:53 PM 72.0 °F 63.0 °F 73% 30.06 in 10.0 mi South 6.9 mph - N/A   Overcast
11:53 PM 71.1 °F 63.0 °F 75% 30.04 in 10.0 mi South 10.4 mph - N/A   Overcast